EXPRESS-AT1

Last updated on Sun Dec 14 2025 00:02:50 GMT+0000 (Coordinated Universal Time)

1 39612U 14010A 25347.21480839 .00000000 00000+0 00000+0 0 9991 2 39612 0.0161 324.9863 0000068 266.3434 344.1406 1.00270773 42957
UTC large
Height (km)
Speed (km/s)
/
Latitude / Longitude
Inclination (degrees)
Orbital Period (minutes)
Azimuth
Elevation
Range (km)
Doppler Factor

Next 0 passes for location: London (51.5072 / 0.1276)

Sorry there are no passes over London.